Погода в Лаздияи

Поиск расширенной информации на нашем сайте:

Полезная информация:

Новости сайта



02.01.2020
Опубликован Долгосрочный прогноз погоды по городам России и ближнего зарубежья на январь 2020 года.
Карты: Прогноз на январь и февраль 2020 года, Сравнение прогнозируемой аномалии приземной температуры воздуха на январь 2020 года по разным моделям.




Погода в Лаздияи - сегодня

Время (UTC), дата Ветер
(°,м/с) 
Видим.   Явления Облачность Т
(°С)
Тd
(°С)
f(%) Тe
(°С)
Pmin
(гПа)
dP
(гПа)
Po
(мм)
O2
(г/м3)
Тmin Tmax R s Состояние
почвы
15 22.01.22 330 (СЗ) 6-11{11}  20000 м  слаб. ливневой снег  9/9 1000 м 
-2 -6.1 73 -6  1019.9  2.1  752  306         
18 22.01.22 320 (СЗ) 5-9{12}  20000 м  слаб. ливневой снег  10/10 600 м 
-2.9 -6.7 75 -6  1021.3  1.3  753  307    -1.6  0.0   
21 22.01.22 350 (С) 3-6{11}  20000 м  в посл. час снег  10/10 600 м 
-2.9 -7 73 -5  1022.3  754  308         
00 23.01.22 340 (С) 3-7{09}  20000 м    10/10 600 м 
-3.1 -6.6 77 -5  1023.8  1.5  755  308         
03 23.01.22 350 (С) 3-5{07}  20000 м    9/9 300 м 
-3.4 -6.4 80 -6  1025.6  1.7  756  309         
06 23.01.22 350 (С) 3-4{08}  20000 м    ясно 
-4.7 -7.2 83 -7  1027.6  1.9  758  311  -4.7       
09 23.01.22 320 (СЗ) 2-2{04}  8000 м  дымка  9/0 
-4.6 -7 83 -6  1030.3  2.7  760  312         
12 23.01.22 330 (СЗ) 2-4{05}  18000 м    ясно <0100 м 
-2.2 -6.2 74 -3  1031.4  1.2  761  310           
15 23.01.22 330 (СЗ) 1-2{05}  13000 м    ясно <0100 м 
-4.3 -6.8 83 -4  1032.9  1.3  762  313         
18 23.01.22 090 (В) 1-1{02}  4100 м  дымка  9/0 
-8.5 -9.6 92 -8  1034.2  762  318    -2     
21 23.01.22 190 (Ю) 2-3{03}  8000 м  дымка  10/0 
-7.4 -8.6 91 -9  1035.4  1.3  763  317         
00 24.01.22 190 (Ю) 3-5{05}  19000 м    10/0 2000 м 
-5.5 -7.1 88 -8  1035.5  0.2  763  315         
03 24.01.22 200 (Ю) 3-5{05}  17000 м    10/0 2000 м 
-5 -7 86 -7  1035.2  -0.3  763  314           
06 24.01.22 210 (ЮЗ) 4-7{07}  14000 м    9/0 2000 м 
-4.4 -6.8 83 -8  1034.8  -0.3  763  313  -9.6         
09 24.01.22 200 (Ю) 5-9{09}  18000 м    9/0 2000 м 
-3.4 -6.8 77 -7  1034.4  -0.3  763  312           
12 24.01.22 200 (Ю) 4-8{10}  19000 м    9/9 300 м 
-1.4 -6.4 69 -4  1032.4  -1.9  761  309           
15 24.01.22 210 (ЮЗ) 5-8{11}  17000 м    9/9 300 м 
-1.2 -5.4 73 -4  1031.4  -1  761  308           
18 24.01.22 210 (ЮЗ) 5-7{10}  5000 м  слаб. переохл. морось (гололёд)  9/9 200 м 
-2 -3.6 89 -5  1030.2  -1.2  760  309    -1.2  0.2   
21 24.01.22 220 (ЮЗ) 5-8{09}  1400 м  слаб. переохл. морось (гололёд)  10/10 100 м 
-1.4 -2.1 95 -5  1028.7  -1.4  759  308           
00 25.01.22 230 (ЮЗ) 5-7{09}  2700 м  слаб. снег  9/9 100 м 
-0.4 -1.1 95 -3  1026.5  -2.1  757  306      0.0   
03 25.01.22 220 (ЮЗ) 4-7{08}  3900 м  слаб. ливневой снег  10/10 100 м 
+0.4 -0.2 96 -2  1024.2  -2.2  755  304         
06 25.01.22 240 (ЮЗ) 5-6{07}  4700 м  слаб. ливневой дождь  9/9 200 м 
+0.6 -0.1 95 -2  1022.8  -1.4  754  303  -2    0.2   
09 25.01.22 260 (З) 3-5{07}  10 км    10/10 200 м 
+1.2 +0.3 94 1022.1  -0.7  754  302           
12 25.01.22 280 (З) 2-5{06}  19000 м  в посл. час дождь  10/10 200 м 
+2.1 +1.3 94 +1  1021.2  -0.8  753  301      0.2     
15 25.01.22 320 (СЗ) 4-5{08}  3400 м  слаб. морось  10/10 100 м 
+2.2 +1.6 96 1021.3  -0.2  753  301           
Время (UTC), дата Ветер
(°,м/с) 
Видим.   Явления Облачность Т
(°С)
Тd
(°С)
f(%) Тe
(°С)
Pmin
(гПа)
dP
(гПа)
Po
(мм)
O2
(г/м3)
Тmin Tmax R s Состояние
почвы

Для получения пояснительной информации подведите курсор к названию столбца.

ПОГОДА в Лаздияи - архив

Всё, что Вы хотите узнать о погоде в Лаздияи - удобно и подробно!

Выберите нужную дату (начиная с 1 января 2019* года) и нажмите кнопку "Найти".
Будут отображены архивные сводки погоды по пункту Лаздияи, начиная с указанной даты.


Отображать данные в формате CSV (для использования в таблицах Excel)


Внимание! Наш архив погоды предназначен исключительно для личного некоммерческого использования в познавательных целях. Если Вам необходимы официальные справки о состоянии погоды (для производственных, юридических, коммерческих и т.п. целей), обращайтесь в органы Росгидромета.

*Примечание: данная дата относится к архиву по метеостанциям СССР (Россия, СНГ, Балтия).
Архив по метеостанциям Зарубежной Европы и Азии (кроме Китая) хранится 10 дней, по другим регионам земного шара (Китай, Африка, Америка, Австралия, Океания) - 1 день.

Лаздияи - район местоположения метеостанции


Название, широта, долгота, высота метеостанции:
Лаздияи 54.2°ш. 23.5°д. 134 м над ур. моря [Литва]

Дополнительная информация

В oтличие oт бoльшинства пoгoдных сайтoв мы публикуем пoдрoбную метеoинфoрмацию в детальнoм прoфессиoнальнoм фoрмате.

Характеристики температуры и влажнoсти вoздуха измеряются на высoте 2 м в тени вдали oт зданий и деревьев.
Скoрoсть ветра измеряется на высoте 10 м (на урoвне рoста челoвека скoрoсть ветра ниже в 1.5-2 раза). Если метеoстанция нахoдится в гoрoде или в лесу, тo скoрoсть ветра занижена на 2-4 м/с пo сравнению с oткрытым местoм. Скoрoсть ветра над акватoриями крупных рек и oзёр, а также на вершинах хoлмoв на 2-5 м/с выше, чем в oбычных услoвиях.
Атмoсфернoе давление в разных тoчках местнoсти мoжет значительнo oтличаться oт давления на метеoстанции, в зависимoсти oт услoвий рельефа (при пoдъёме на 10 м давление пoнижается примернo на 1 мм рт.ст.).